Change the Weather History Date:

Saturday, October 22, 2011

  Actual Average Record
Temperature  
Mean Temperature 44 °F -  
Max Temperature 59 °F 61 °F 85 °F (1947)
Min Temperature 30 °F 38 °F 18 °F (1969)
Degree Days  
Heating Degree Days 22    
Moisture  
Dew Point 34 °F    
Average Humidity 83    
Maximum Humidity 100    
Minimum Humidity 42    
Precipitation  
Precipitation 0.00 in - - ()
Sea Level Pressure  
Sea Level Pressure 30.14 in    
Wind  
Wind Speed 1 mph (WSW)    
Max Wind Speed 9 mph    
Max Gust Speed 17 mph    
Visibility 7 miles    
Events      
Averages and records for this station are not official NWS values.
T = Trace of Precipitation, MM = Missing Value Source: NWS Daily Summary

Daily Weather History Graph

Daily Weather History Graph

Search for Another Location

Airport or City:

Trip Planner

Search our weather history database for the weather conditions in past years. The results will help you decide how hot, cold, wet, or windy it might be!

Date:

Astronomy

Oct. 22, 2011 Rise Set
Actual Time 7:47 AM EDT 6:41 PM EDT
Civil Twilight 7:20 AM EDT 7:09 PM EDT
Nautical Twilight 6:49 AM EDT 7:40 PM EDT
Astronomical Twilight 6:17 AM EDT 8:11 PM EDT
Moon 2:44 AM EDT (10/22) 3:58 PM EDT (10/22)
Length of Visible Light 11h 48m
Length of Day
10h 53m
Waning Crescent, 24% of the Moon is Illuminated
Oct 22
Waning Crescent
Oct 26
New
Nov 2
First Quarter
Nov 10
Full
Nov 18
Last Quarter

Hourly Weather History & Observations

Time (EDT) Temp. Windchill Dew Point Humidity Pressure Visibility Wind Dir Wind Speed Gust Speed Precip Events Conditions
12:53 AM 37.0 °F - 36.0 °F 96% 30.13 in 10.0 mi Calm Calm - N/A   Clear
1:53 AM 35.1 °F - 34.0 °F 96% 30.13 in 10.0 mi Calm Calm - N/A   Clear
2:53 AM 34.0 °F - 33.1 °F 96% 30.12 in 7.0 mi Calm Calm - N/A   Clear
3:53 AM 33.1 °F - 32.0 °F 96% 30.12 in 5.0 mi Calm Calm - N/A   Clear
4:53 AM 34.0 °F - 32.0 °F 92% 30.12 in 9.0 mi Calm Calm - N/A   Partly Cloudy
5:53 AM 32.0 °F - 30.9 °F 96% 30.14 in 7.0 mi Calm Calm - N/A   Clear
6:53 AM 30.9 °F - 30.0 °F 96% 30.15 in 5.0 mi Calm Calm - N/A   Clear
6:59 AM 30.2 °F - 30.2 °F 100% 30.13 in 1.8 mi Calm Calm - N/A   Clear
7:05 AM 30.2 °F - 30.2 °F 100% 30.13 in 0.8 mi Calm Calm - N/A   Clear
7:21 AM 30.2 °F - 30.2 °F 100% 30.14 in 1.0 mi Calm Calm - N/A   Clear
7:26 AM 30.2 °F - 30.2 °F 100% 30.14 in 2.0 mi Calm Calm - N/A   Clear
7:28 AM 30.2 °F - 30.2 °F 100% 30.14 in 3.0 mi Calm Calm - N/A   Clear
8:11 AM 30.2 °F - 30.2 °F 100% 30.15 in 1.8 mi Calm Calm - N/A   Clear
8:19 AM 32.0 °F - 30.2 °F 93% 30.15 in 2.5 mi Calm Calm - N/A   Clear
8:27 AM 33.8 °F - 32.0 °F 93% 30.15 in 8.0 mi Calm Calm - N/A   Clear
8:53 AM 35.1 °F - 34.0 °F 96% 30.17 in 7.0 mi Calm Calm - N/A   Clear
9:53 AM 45.0 °F 43.5 °F 42.1 °F 90% 30.17 in 8.0 mi Variable 3.5 mph - N/A   Clear
10:53 AM 50.0 °F - 41.0 °F 71% 30.17 in 10.0 mi WSW 8.1 mph - N/A   Clear
11:53 AM 52.0 °F - 39.0 °F 61% 30.17 in 10.0 mi WSW 8.1 mph - N/A   Clear
12:53 PM 54.0 °F - 37.0 °F 53% 30.15 in 10.0 mi SW 8.1 mph - N/A   Clear
1:53 PM 55.0 °F - 37.9 °F 53% 30.13 in 10.0 mi SSW 9.2 mph - N/A   Partly Cloudy
2:53 PM 57.0 °F - 37.0 °F 47% 30.12 in 10.0 mi West 8.1 mph 17.3 mph N/A   Clear
3:53 PM 57.0 °F - 37.0 °F 47% 30.11 in 10.0 mi West 6.9 mph - N/A   Clear
4:53 PM 57.9 °F - 35.1 °F 42% 30.11 in 10.0 mi WNW 5.8 mph - N/A   Clear
5:53 PM 55.9 °F - 34.0 °F 44% 30.11 in 10.0 mi Calm Calm - N/A   Clear
6:53 PM 46.9 °F - 39.0 °F 74% 30.12 in 10.0 mi Calm Calm - N/A   Clear
7:53 PM 45.0 °F - 41.0 °F 86% 30.13 in 10.0 mi Calm Calm - N/A   Clear
8:53 PM 39.9 °F - 37.9 °F 93% 30.13 in 10.0 mi Calm Calm - N/A   Clear
9:53 PM 39.0 °F - 36.0 °F 89% 30.12 in 10.0 mi Calm Calm - N/A   Clear
11:53 PM 36.0 °F - 34.0 °F 93% 30.12 in 10.0 mi Calm Calm - N/A   Clear